Weather observations for the past three days for
Red Bluff, Red Bluff Municipal Airport
Imperial (Metric)
Date Time (pdt) Wind (mph) Vis. (mi.) Weather Sky Cond. Temperature (ºF) Relative Humidity Wind Chill (°F) Heat Index (°F) Pressure Precipitation (in)
Air Dwpt 6 hour altimeter (in) sea level (mb) 1 hr 3 hr 6 hr
Max. Min.
15 01:54 NW 7 10.00 Fair CLR 75.9 55.9 50% 78 29.92 1012.8
15 00:54 NW 5 10.00 Fair CLR 78.1 54 43% 79 29.92 1012.8
14 23:54 N 7 10.00 Fair CLR 78.1 55.9 47% 79 29.93 1012.9
14 22:54 W 5 10.00 Fair CLR 80.1 55 99 80.1 42% 80 29.92 1012.8
14 21:54 Calm 10.00 Fair CLR 84.9 55 36% 84 29.92 1012.7
14 20:54 Calm 10.00 Fair CLR 91 48 23% 88 29.91 1012.4
14 19:54 Calm 10.00 Fair CLR 96.1 51.1 22% 93 29.91 1012.3
14 18:54 SE 7 10.00 Fair CLR 96.1 54 24% 94 29.91 1012.5
14 17:54 S 5 10.00 Fair CLR 96.1 54 24% 94 29.92 1012.6
14 16:54 SE 10 10.00 Fair CLR 99 48 99 84 18% 95 29.92 1012.8
14 15:54 SE 9 10.00 Fair CLR 97 45 17% 93 29.94 1013.5
14 14:54 S 7 10.00 Fair CLR 97 45 17% 93 29.97 1014.2
14 13:54 Calm 10.00 Fair CLR 93.9 48.9 21% 91 29.98 1014.7
14 12:54 Vrbl 7 10.00 Fair CLR 91 50 25% 88 30 1015.3
14 11:54 S 10 10.00 Fair CLR 87.1 46.9 25% 84 30.02 1016.0
14 10:54 SE 12 10.00 Fair CLR 84 45 84.9 77 25% 82 30.02 1016.1
14 09:54 S 8 10.00 Fair CLR 82 51.1 34% 81 30.01 1015.7
14 08:54 SE 9 10.00 Fair CLR 80.1 53.1 39% 80 30 1015.3
14 07:54 SW 7 10.00 A Few Clouds FEW110 80.1 54 41% 80 29.98 1014.6
14 06:54 SW 6 10.00 Fair CLR 77 54 45% 78 29.96 1014.0
14 05:54 E 3 10.00 Fair CLR 78.1 53.1 42% 79 29.94 1013.2
14 04:54 S 5 10.00 Fair CLR 79 55 87.1 79 44% 80 29.93 1013.0
14 03:54 E 6 10.00 Fair CLR 81 57 44% 81 29.9 1012.1
14 02:54 E 7 10.00 Fair CLR 81 55 41% 81 29.89 1011.6
14 01:54 S 8 10.00 Fair CLR 82.9 57 41% 82 29.88 1011.4
14 00:54 Calm 10.00 Fair CLR 86 66 51% 88 29.87 1011.0
13 23:54 E 8 10.00 Fair CLR 86 66 51% 88 29.87 1010.9
13 22:54 E 7 10.00 Fair CLR 86 63 105.1 84.9 46% 87 29.85 1010.3
13 21:54 S 6 10.00 Fair CLR 87.1 66 50% 89 29.86 1010.7
13 20:54 S 9 10.00 Fair CLR 90 64.9 44% 92 29.84 1009.9
13 19:54 S 13 10.00 Fair CLR 100 54 21% 98 29.81 1008.8
13 18:54 S 6 10.00 Fair CLR 105.1 48 15% 102 29.78 1008.1
13 17:54 E 3 10.00 Fair CLR 104 51.1 17% 101 29.78 1008.0
13 16:54 E 10 10.00 Fair CLR 100.9 54 102.9 91 21% 99 29.79 1008.3
13 15:54 SE 8 10.00 Fair CLR 98.1 54 23% 96 29.82 1009.2
13 14:54 SE 10 10.00 Fair CLR 99 61 29% 100 29.84 1009.9
13 13:54 S 10 10.00 Fair CLR 97 53.1 23% 95 29.86 1010.5
13 12:54 S 12 10.00 Fair CLR 95 57 28% 94 29.86 1010.6
13 11:54 S 14 G 25 10.00 Fair CLR 93.9 54 26% 92 29.86 1010.7
13 10:54 SE 10 10.00 Fair CLR 93 59 93.9 79 32% 92 29.84 1010.1
13 09:54 SE 10 10.00 Fair CLR 93 53.1 26% 91 29.83 1009.7
13 08:54 Vrbl 3 10.00 Fair CLR 93 51.1 24% 90 29.82 1009.3
13 07:54 N 6 10.00 Fair CLR 86 53.1 32% 84 29.81 1008.8
13 06:54 NW 6 10.00 Fair CLR 80.1 50 35% 80 29.79 1008.3
13 05:54 NW 6 10.00 Fair CLR 79 52 39% 79 29.79 1008.2
13 04:54 N 7 10.00 Fair CLR 80.1 52 91 79 38% 80 29.78 1007.7
13 03:54 NW 6 10.00 Fair CLR 82.9 52 34% 82 29.76 1007.3
13 02:54 NW 8 10.00 Fair CLR 82 54 38% 81 29.76 1007.1
13 01:54 NW 6 10.00 Fair CLR 84 55 37% 83 29.75 1006.8
13 00:54 NW 6 10.00 Fair CLR 82 57.9 44% 82 29.75 1006.9
12 23:54 NW 7 10.00 Fair CLR 84.9 59 42% 85 29.75 1006.9
12 22:54 Calm 10.00 Fair CLR 91 62.1 113 91 38% 92 29.76 1007.1
12 21:54 E 6 10.00 Fair CLR 93 63 37% 94 29.75 1006.8
12 20:54 S 3 10.00 Fair CLR 98.1 55 24% 96 29.73 1006.3
12 19:54 S 7 10.00 Fair CLR 106 51.1 16% 103 29.72 1005.9
12 18:54 S 9 10.00 Fair CLR 111 43 10% 106 29.71 1005.5
12 17:54 SE 8 10.00 Fair CLR 111.9 41 9% 106 29.71 1005.4
12 16:54 S 9 10.00 Fair CLR 113 39.9 114.1 100.9 8% 107 29.72 1005.8
12 15:54 S 12 G 17 10.00 Fair CLR 113 41 9% 107 29.74 1006.5
12 14:54 S 8 10.00 Fair CLR 111.9 46 11% 107 29.76 1007.1
12 13:54 SE 6 10.00 Fair CLR 109 44.1 11% 104 29.77 1007.4
12 12:54 SE 7 10.00 Fair CLR 107.1 50 15% 104 29.78 1008.0
12 11:54 Vrbl 5 10.00 Fair CLR 106 48.9 15% 103 29.8 1008.6
12 10:54 E 5 10.00 Fair CLR 100 53.1 100.9 73.9 21% 98 29.81 1009.0
12 09:54 Vrbl 3 10.00 Fair CLR 96.1 54 24% 94 29.83 1009.4
12 08:54 N 7 10.00 Fair CLR 91 53.1 27% 89 29.83 1009.7
12 07:54 N 5 10.00 Fair CLR 84.9 53.1 33% 83 29.83 1009.4
12 06:54 NW 5 10.00 Fair CLR 78.1 51.1 39% 79 29.82 1009.1
12 05:54 NW 5 10.00 Fair CLR 75.9 50 40% 78 29.8 1008.7
12 04:54 NW 6 10.00 Fair CLR 78.1 50 88 78.1 37% 79 29.79 1008.1
12 03:54 NW 7 10.00 Fair CLR 80.1 50 35% 80 29.78 1008.0
12 02:54 NW 7 10.00 Fair CLR 80.1 51.1 37% 80 29.79 1008.0
Date Time (pdt) Wind (mph) Vis. (mi.) Weather Sky Cond. Air Dwpt Max. Min. Relative Humidity Wind Chill (°F) Heat Index (°F) altimeter (in) sea level (mb) 1 hr 3 hr 6 hr
6 hour
Temperature (ºF) Pressure Precipitation (in)